User: anonymous
Location: Unspecified
(0.0000°N, 0.0000°E)
Time: 00:19:05
(UTC+02:00)
Language:

DELTA 2 R/B (1) - Orbit

View from above orbital plane
View from above orbital plane
View from above satellite
View from above satellite

Ground track
Ground track

The orbit data is extracted from the following two-line orbital elements,

1 27665U 03005C   14273.76443006  .00000195  00000-0  11115-3 0  1316
2 27665 039.5751 112.7258 0009526 303.3450 115.6707 14.28222356609281
Epoch (UTC): 30 September 2014 18:20:46
Eccentricity: 0.0009526
inclination: 39.5751°
perigee height: 791 km
apogee height: 804 km
right ascension of ascending node: 112.7258°
argument of perigee: 303.3450°
revolutions per day: 14.28222356
mean anomaly at epoch: 115.6707°
orbit number at epoch: 60928

The dashed part of the orbit path shows where the satellite is in the earth's shadow,  

DLR